�������l�o���
Date,Time,MP-1(��Sv/h),MP-2(��Sv/h),MP-3(��Sv/h),MP-4(��Sv/h),MP-5(��Sv/h),MP-6(��Sv/h),MP-7(��Sv/h),MP-8(��Sv/h),����,����(m/s),���J
2024/05/30,00:00,0.489,0.744,0.474,0.915,0.666,0.308,0.542,0.504,��쓌,2.0,��
2024/05/30,00:10,0.487,0.746,0.474,0.915,0.664,0.309,0.543,0.504,��쓌,2.0,��
2024/05/30,00:20,0.486,0.745,0.473,0.914,0.664,0.308,0.542,0.504,��쓌,1.7,��
2024/05/30,00:30,0.488,0.745,0.473,0.915,0.667,0.308,0.540,0.505,��쓌,0.9,��
2024/05/30,00:40,0.488,0.747,0.472,0.916,0.665,0.308,0.543,0.504,��,1.1,��
2024/05/30,00:50,0.488,0.746,0.473,0.915,0.665,0.308,0.543,0.504,��쓌,0.6,��
2024/05/30,01:00,0.487,0.745,0.472,0.917,0.665,0.309,0.542,0.503,-,CALM,��
2024/05/30,01:10,0.487,0.745,0.474,0.915,0.665,0.310,0.542,0.504,�k��,0.6,��
2024/05/30,01:20,0.487,0.745,0.471,0.913,0.665,0.310,0.543,0.505,�k,0.9,��
2024/05/30,01:30,0.487,0.746,0.474,0.914,0.667,0.308,0.544,0.505,�k,1.7,��
2024/05/30,01:40,0.488,0.747,0.473,0.914,0.666,0.308,0.542,0.504,�k,1.9,��
2024/05/30,01:50,0.487,0.745,0.474,0.915,0.666,0.309,0.542,0.504,�k,2.3,��
2024/05/30,02:00,0.487,0.746,0.474,0.913,0.666,0.308,0.543,0.504,�k,1.4,��
2024/05/30,02:10,0.488,0.747,0.474,0.913,0.663,0.309,0.544,0.504,�k,0.8,��
2024/05/30,02:20,0.487,0.747,0.473,0.916,0.667,0.308,0.542,0.503,��,0.6,��
2024/05/30,02:30,0.488,0.746,0.472,0.915,0.664,0.308,0.543,0.505,��쓌,0.9,��
2024/05/30,02:40,0.486,0.744,0.473,0.915,0.666,0.310,0.544,0.503,-,CALM,��
2024/05/30,02:50,0.488,0.748,0.472,0.914,0.664,0.307,0.543,0.504,-,CALM,��
2024/05/30,03:00,0.487,0.746,0.474,0.915,0.665,0.309,0.544,0.504,-,CALM,��
2024/05/30,03:10,0.487,0.746,0.473,0.915,0.666,0.310,0.543,0.505,�k��,0.9,��
2024/05/30,03:20,0.488,0.746,0.472,0.914,0.664,0.308,0.543,0.506,�k�k��,1.1,��
2024/05/30,03:30,0.487,0.746,0.473,0.915,0.665,0.308,0.543,0.505,�k�k��,1.7,��
2024/05/30,03:40,0.486,0.745,0.473,0.914,0.666,0.308,0.542,0.505,�k��,0.6,��
2024/05/30,03:50,0.486,0.746,0.474,0.915,0.665,0.308,0.543,0.505,-,CALM,��
2024/05/30,04:00,0.486,0.745,0.473,0.913,0.669,0.308,0.543,0.502,-,CALM,��
2024/05/30,04:10,0.488,0.745,0.471,0.915,0.667,0.309,0.542,0.503,-,CALM,��
2024/05/30,04:20,0.488,0.746,0.472,0.915,0.664,0.307,0.542,0.503,�k��,0.6,��
2024/05/30,04:30,0.486,0.745,0.473,0.915,0.666,0.309,0.543,0.504,�k�k��,1.2,��
2024/05/30,04:40,0.487,0.745,0.471,0.913,0.666,0.309,0.544,0.504,�k�k��,1.4,��
2024/05/30,04:50,0.487,0.746,0.473,0.917,0.667,0.308,0.543,0.503,�k�k��,1.1,��
2024/05/30,05:00,0.486,0.746,0.473,0.916,0.667,0.308,0.543,0.505,-,CALM,��
2024/05/30,05:10,0.489,0.745,0.471,0.916,0.665,0.307,0.543,0.504,-,CALM,��
2024/05/30,05:20,0.487,0.744,0.474,0.915,0.665,0.308,0.544,0.505,��,0.9,��
2024/05/30,05:30,0.488,0.746,0.473,0.916,0.665,0.309,0.542,0.504,-,CALM,��
2024/05/30,05:40,0.488,0.744,0.472,0.917,0.668,0.308,0.544,0.505,-,CALM,��
2024/05/30,05:50,0.488,0.745,0.474,0.916,0.666,0.308,0.543,0.505,�쐼,0.6,��
2024/05/30,06:00,0.487,0.746,0.474,0.914,0.664,0.309,0.543,0.503,-,CALM,��
2024/05/30,06:10,0.488,0.747,0.474,0.913,0.666,0.308,0.543,0.505,�쓌,0.9,��
2024/05/30,06:20,0.486,0.746,0.473,0.914,0.665,0.308,0.544,0.505,-,CALM,��
2024/05/30,06:30,0.489,0.747,0.473,0.916,0.667,0.308,0.544,0.505,��쓌,0.8,��
2024/05/30,06:40,0.487,0.747,0.472,0.915,0.665,0.308,0.542,0.504,���k��,0.6,��
2024/05/30,06:50,0.488,0.747,0.473,0.916,0.667,0.308,0.543,0.505,��,0.8,��
2024/05/30,07:00,0.489,0.748,0.472,0.916,0.668,0.310,0.545,0.505,-,CALM,��
2024/05/30,07:10,0.488,0.748,0.474,0.916,0.666,0.307,0.544,0.504,�k��,0.9,��
2024/05/30,07:20,0.488,0.744,0.473,0.917,0.665,0.307,0.544,0.505,��,1.2,��
2024/05/30,07:30,0.487,0.745,0.473,0.916,0.665,0.307,0.542,0.506,���쓌,1.5,��
2024/05/30,07:40,0.487,0.744,0.473,0.915,0.665,0.306,0.542,0.506,�쓌,1.4,��
2024/05/30,07:50,0.486,0.745,0.473,0.917,0.665,0.307,0.543,0.504,��,0.6,��
2024/05/30,08:00,0.486,0.745,0.475,0.916,0.666,0.307,0.542,0.504,�k�k��,0.9,��
2024/05/30,08:10,0.486,0.746,0.471,0.916,0.666,0.308,0.541,0.504,��,1.1,��
2024/05/30,08:20,0.486,0.745,0.473,0.916,0.666,0.308,0.541,0.501,��,1.2,��
2024/05/30,08:30,0.487,0.747,0.473,0.918,0.666,0.306,0.541,0.501,���k��,0.9,��
2024/05/30,08:40,0.486,0.745,0.474,0.917,0.666,0.308,0.542,0.502,���쓌,0.9,��
2024/05/30,08:50,0.488,0.745,0.474,0.918,0.666,0.308,0.541,0.502,���쓌,2.9,��
2024/05/30,09:00,0.488,0.747,0.473,0.920,0.667,0.307,0.540,0.502,�쓌,3.1,��
2024/05/30,09:10,0.487,0.747,0.472,0.918,0.667,0.308,0.540,0.502,�쓌,3.7,��
2024/05/30,09:20,0.488,0.747,0.473,0.919,0.665,0.307,0.541,0.502,��쓌,4.5,��
2024/05/30,09:30,0.490,0.748,0.473,0.919,0.665,0.309,0.541,0.503,��쓌,5.0,��
2024/05/30,09:40,0.489,0.747,0.474,0.920,0.665,0.308,0.540,0.503,��쓌,5.6,��
2024/05/30,09:50,0.489,0.749,0.473,0.918,0.666,0.309,0.542,0.504,��,5.6,��
2024/05/30,10:00,0.488,0.749,0.472,0.917,0.666,0.309,0.542,0.503,��,6.6,��
2024/05/30,10:10,0.489,0.748,0.474,0.919,0.668,0.308,0.541,0.503,��쓌,7.4,��
2024/05/30,10:20,0.489,0.751,0.474,0.918,0.668,0.308,0.541,0.503,��쓌,6.9,��
2024/05/30,10:30,0.489,0.749,0.473,0.917,0.667,0.309,0.542,0.501,��쓌,8.2,��
2024/05/30,10:40,0.489,0.748,0.476,0.917,0.666,0.308,0.540,0.501,��,7.7,��
2024/05/30,10:50,0.488,0.751,0.473,0.918,0.668,0.310,0.542,0.501,��,9.0,��
2024/05/30,11:00,0.489,0.749,0.473,0.917,0.668,0.310,0.543,0.503,��,6.9,��
2024/05/30,11:10,0.489,0.750,0.475,0.917,0.669,0.307,0.543,0.502,��,9.2,��
2024/05/30,11:20,0.489,0.750,0.475,0.915,0.669,0.309,0.541,0.503,��,8.7,��
2024/05/30,11:30,0.490,0.752,0.475,0.916,0.670,0.310,0.542,0.503,��,8.3,��
2024/05/30,11:40,0.490,0.751,0.475,0.916,0.670,0.310,0.543,0.504,��,7.1,��
2024/05/30,11:50,0.490,0.753,0.476,0.918,0.669,0.309,0.543,0.502,��,7.0,��
2024/05/30,12:00,0.492,0.750,0.476,0.918,0.669,0.311,0.543,0.504,��,9.6,��
2024/05/30,12:10,0.490,0.751,0.475,0.916,0.671,0.307,0.542,0.504,��,10.3,��
2024/05/30,12:20,0.490,0.750,0.476,0.918,0.669,0.309,0.543,0.505,��,8.8,��
2024/05/30,12:30,0.492,0.751,0.477,0.919,0.669,0.310,0.543,0.503,��,10.6,��
2024/05/30,12:40,0.491,0.752,0.477,0.918,0.669,0.309,0.541,0.504,��,9.4,��
2024/05/30,12:50,0.492,0.752,0.476,0.917,0.670,0.310,0.541,0.502,��,7.2,��
2024/05/30,13:00,0.492,0.751,0.477,0.920,0.672,0.310,0.543,0.503,��,7.6,��
2024/05/30,13:10,0.492,0.752,0.475,0.919,0.671,0.311,0.544,0.502,��,7.6,��
2024/05/30,13:20,0.491,0.754,0.477,0.917,0.670,0.310,0.543,0.502,��,7.4,��
2024/05/30,13:30,0.490,0.752,0.478,0.916,0.671,0.310,0.542,0.502,��,6.7,��
2024/05/30,13:40,0.490,0.751,0.475,0.920,0.673,0.311,0.542,0.504,��,8.0,��
2024/05/30,13:50,0.491,0.752,0.476,0.918,0.672,0.310,0.541,0.502,��,7.7,��
2024/05/30,14:00,0.491,0.754,0.477,0.919,0.671,0.310,0.541,0.503,��쓌,6.7,��
2024/05/30,14:10,0.491,0.753,0.477,0.918,0.672,0.310,0.541,0.504,��쓌,8.7,��
2024/05/30,14:20,0.492,0.754,0.477,0.918,0.674,0.309,0.541,0.503,��,9.6,��
2024/05/30,14:30,0.492,0.752,0.479,0.920,0.674,0.311,0.544,0.504,��,7.6,��
2024/05/30,14:40,0.491,0.753,0.476,0.916,0.673,0.311,0.541,0.502,��,7.5,��
2024/05/30,14:50,0.492,0.751,0.478,0.918,0.672,0.309,0.543,0.502,��,8.2,��
2024/05/30,15:00,0.492,0.752,0.477,0.919,0.673,0.309,0.541,0.503,��,7.5,��
2024/05/30,15:10,0.491,0.752,0.477,0.920,0.673,0.311,0.541,0.502,��,7.8,��
2024/05/30,15:20,0.492,0.752,0.477,0.920,0.674,0.310,0.541,0.503,��,7.7,��
2024/05/30,15:30,0.492,0.754,0.475,0.920,0.671,0.310,0.541,0.504,��,8.3,��
2024/05/30,15:40,0.494,0.753,0.477,0.921,0.673,0.312,0.540,0.506,��,8.6,��
2024/05/30,15:50,0.491,0.753,0.477,0.920,0.675,0.310,0.542,0.506,��,7.9,��
2024/05/30,16:00,0.492,0.754,0.477,0.921,0.674,0.311,0.542,0.503,��,8.7,��
2024/05/30,16:10,0.493,0.755,0.476,0.920,0.672,0.310,0.543,0.504,��,8.7,��
2024/05/30,16:20,0.492,0.755,0.478,0.920,0.675,0.311,0.541,0.503,��,7.3,��
2024/05/30,16:30,0.492,0.756,0.479,0.925,0.673,0.310,0.541,0.504,��,5.5,��
2024/05/30,16:40,0.493,0.753,0.477,0.923,0.676,0.311,0.541,0.504,��,7.3,��
2024/05/30,16:50,0.490,0.755,0.477,0.921,0.675,0.310,0.541,0.503,��,8.4,��
2024/05/30,17:00,0.492,0.755,0.477,0.923,0.675,0.310,0.541,0.503,��,7.8,��
2024/05/30,17:10,0.493,0.755,0.476,0.924,0.673,0.311,0.542,0.503,��,6.2,��
2024/05/30,17:20,0.491,0.755,0.478,0.925,0.673,0.310,0.541,0.503,��,8.0,��
2024/05/30,17:30,0.493,0.755,0.477,0.924,0.675,0.310,0.540,0.503,��,8.3,��
2024/05/30,17:40,0.492,0.757,0.479,0.922,0.674,0.310,0.541,0.504,��,8.6,��
2024/05/30,17:50,0.491,0.756,0.478,0.925,0.675,0.311,0.540,0.504,��,8.6,��
2024/05/30,18:00,0.491,0.755,0.479,0.926,0.675,0.312,0.542,0.505,��,8.4,��
2024/05/30,18:10,0.492,0.756,0.478,0.924,0.676,0.311,0.541,0.505,��,11.3,��
2024/05/30,18:20,0.492,0.755,0.477,0.924,0.674,0.310,0.542,0.505,��,9.0,��
2024/05/30,18:30,0.491,0.758,0.477,0.926,0.673,0.311,0.542,0.505,��,10.5,��
2024/05/30,18:40,0.492,0.756,0.476,0.924,0.674,0.311,0.542,0.507,��,9.9,��
2024/05/30,18:50,0.492,0.758,0.477,0.925,0.675,0.312,0.542,0.505,��,8.5,��
2024/05/30,19:00,0.491,0.756,0.478,0.928,0.677,0.312,0.542,0.507,��,8.5,��
2024/05/30,19:10,0.491,0.758,0.477,0.925,0.677,0.311,0.543,0.507,��,7.8,��
2024/05/30,19:20,0.491,0.759,0.476,0.927,0.676,0.311,0.543,0.506,��,7.2,��
2024/05/30,19:30,0.492,0.756,0.477,0.926,0.675,0.312,0.541,0.506,��,6.4,��
2024/05/30,19:40,0.493,0.758,0.477,0.925,0.676,0.311,0.544,0.507,��,7.6,��
2024/05/30,19:50,0.491,0.756,0.479,0.925,0.674,0.312,0.544,0.506,��,6.2,��
2024/05/30,20:00,0.492,0.757,0.478,0.924,0.675,0.312,0.542,0.506,��,5.1,��
2024/05/30,20:10,0.493,0.758,0.477,0.927,0.678,0.311,0.542,0.506,��,6.3,��
2024/05/30,20:20,0.492,0.759,0.479,0.926,0.677,0.311,0.542,0.506,��,8.9,��
2024/05/30,20:30,0.492,0.757,0.479,0.925,0.678,0.312,0.543,0.505,��,8.0,��
2024/05/30,20:40,0.492,0.755,0.480,0.927,0.676,0.311,0.543,0.505,��,8.6,��
2024/05/30,20:50,0.492,0.759,0.478,0.927,0.676,0.310,0.542,0.506,��,8.5,��
2024/05/30,21:00,0.491,0.757,0.479,0.925,0.676,0.311,0.542,0.505,��,7.7,��
2024/05/30,21:10,0.492,0.757,0.480,0.927,0.677,0.312,0.544,0.506,��,7.4,��
2024/05/30,21:20,0.491,0.758,0.478,0.925,0.676,0.310,0.542,0.506,��,6.6,��
2024/05/30,21:30,0.493,0.758,0.477,0.924,0.675,0.312,0.544,0.506,��,8.0,��
2024/05/30,21:40,0.492,0.759,0.480,0.926,0.676,0.310,0.544,0.507,��,9.0,��
2024/05/30,21:50,0.492,0.759,0.479,0.927,0.675,0.311,0.543,0.506,��,8.3,��
2024/05/30,22:00,0.491,0.758,0.478,0.927,0.676,0.310,0.544,0.506,��,8.8,��
2024/05/30,22:10,0.491,0.759,0.479,0.927,0.676,0.310,0.543,0.506,��,7.9,��
2024/05/30,22:20,0.491,0.759,0.478,0.926,0.675,0.311,0.543,0.506,��,8.6,��
2024/05/30,22:30,0.491,0.759,0.478,0.926,0.676,0.310,0.542,0.507,��,9.2,��
2024/05/30,22:40,0.491,0.757,0.478,0.926,0.678,0.311,0.541,0.506,��,8.8,��
2024/05/30,22:50,0.493,0.756,0.479,0.924,0.676,0.310,0.545,0.506,��,8.5,��
2024/05/30,23:00,0.491,0.757,0.479,0.926,0.676,0.311,0.543,0.507,��,7.9,��
2024/05/30,23:10,0.491,0.757,0.478,0.926,0.674,0.311,0.544,0.506,��,8.3,��
2024/05/30,23:20,0.493,0.757,0.479,0.926,0.676,0.311,0.544,0.505,��,7.6,��
2024/05/30,23:30,0.492,0.758,0.478,0.926,0.676,0.312,0.542,0.505,��,7.8,��
2024/05/30,23:40,0.492,0.758,0.477,0.925,0.677,0.309,0.542,0.506,��,6.7,��
2024/05/30,23:50,0.491,0.758,0.477,0.927,0.677,0.310,0.544,0.506,��,7.0,��
